Regional Weather Roundup
Issued by NWS

Home | Current Version | Previous Version | Graphics & Text | Print | Product List | Glossary On
Versions: 1 2 3 4 5 6 7 8 9 10 11 12 13 14 15 16 17 18 19 20 21 22 23 24 25 26 27 28 29 30 31 32 33 34 35 36 37 38 39 40 41 42 43 44 45 46 47 48 49 50
000
ASUS45 KBOU 280707
RWRCO

WEATHER ROUNDUP FOR COLORADO
NATIONAL WEATHER SERVICE DENVER/BOULDER CO
1200 AM MST FRI NOV 28 2014

NOTE: "FAIR" INDICATES FEW OR NO CLOUDS BELOW 12000 FEET WITH NO
SIGNIFICANT WEATHER AND/OR OBSTRUCTIONS TO VISIBILITY.

COZ001>005-013-030-031-280800-
...NORTHWEST COLORADO...

CITY           SKY/WX    TMP DP  RH WIND       PRES   REMARKS
CRAIG          PTCLDY    26  24  92 CALM      30.23F
HAYDEN         PTCLDY    30  21  69 E14       30.23F WCI  20
MEEKER         MOCLDY    35  21  56 VRB5      30.24F WCI  31
MOUNT WERNER   NOT AVBL
STEAMBOAT SPGS PTCLDY    28  27  96 CALM      30.25F
WALDEN         CLOUDY    36  19  51 SE9       30.25F
$$

COZ006>008-011-280800-
...WEST CENTRAL VALLEYS...

CITY           SKY/WX    TMP DP  RH WIND       PRES   REMARKS
GRAND JUNCTION PTCLDY    28  23  81 NE3       30.28S
MONTROSE       CLEAR     28  22  78 SE8       30.31F WCI  20
EAGLE          PTCLDY    27  25  93 S3        30.32F
RIFLE          MOCLDY    31  27  85 CALM      30.30F
DELTA          CLEAR     35  25  66 CALM      30.30F
NUCLA          CLEAR     34  21  60 E7        30.34S WCI  28
$$

COZ017>023-064>068-280800-
...SOUTHWEST COLORADO...

CITY           SKY/WX    TMP DP  RH WIND       PRES   REMARKS
DURANGO        PTCLDY    28  20  71 NE3       30.35S
CORTEZ         CLEAR     24  17  74 E9        30.33F WCI  14
PAGOSA SPRINGS PTCLDY    27  20  74 CALM      30.38S
TELLURIDE      PTCLDY    34  16  47 SE8       30.44F WCI  27
WOLF CREEK PAS CLEAR     28  10  47 MISG      30.49S
$$

COZ009-010-012-014-032>034-037-058>063-280800-
...CENTRAL COLORADO...

CITY           SKY/WX    TMP DP  RH WIND       PRES   REMARKS
ASPEN          PTCLDY    30  20  66 S7        30.31F WCI  23
BUENA VISTA    CLEAR     47   9  21 NW7       30.25F
COPPER MTN     CLEAR     34   9  35 SW21G28   30.41F WCI  22
BERTHOUD PASS  NOT AVBL
COTTONWOOD PAS CLEAR     45   1  16 W28G49    30.27F
GUNNISON       CLEAR     18  12  79 CALM      30.43S
KREMMLING      PTCLDY    30  25  80 CALM      30.30F
LEADVILLE      CLEAR     32  10  40 NE9       30.34F WCI  24
MONARCH PASS   PTCLDY    28  10  47 W39       30.50F WCI  11
SALIDA         CLEAR     48  11  22 SW22      30.29F
SUNLIGHT       MOCLDY    32  21  64 CALM      30.40F
WILKERSON PASS CLEAR     32   5  32 W14G24    30.33F WCI  22
$$

COZ069>075-280800-
...SAN LUIS VALLEY/SANGRE DE CRISTO MOUNTAINS...

CITY           SKY/WX    TMP DP  RH WIND       PRES   REMARKS
ALAMOSA        MOCLDY    18  11  74 W5        30.32F WCI  11
LA VETA PASS   NOT AVBL
SAGUACHE       PTCLDY    28  19  69 NW5       30.33F WCI  23
$$

COZ035-036-038>040-280800-
...NORTHERN COLORADO FRONT RANGE...

CITY           SKY/WX    TMP DP  RH WIND       PRES   REMARKS
DENVER INTL AP PTCLDY    48  18  30 SW14      30.05F
DMNS CITY PARK   N/A     48  16  27 SE3       30.05F
AURORA         PTCLDY    44  19  36 SW10      30.08F
FRONT RANGE AP PTCLDY    39  27  60 S15       30.07F
ERIE MUNI ARPT PTCLDY    42  20  42 CALM      30.02F
BOULDER MUN AP PTCLDY    50  19  29 CALM      30.03S
CENTENNIAL     PTCLDY    45  18  34 SE10      30.08F
BROOMFIELD     PTCLDY    55  14  19 S9G17     30.06F
FORT COLLINS   PTCLDY    57  19  23 SW15G30   30.02F
LONGMONT       PTCLDY    49  20  32 E6        30.04F
$$

COZ041-046-047-076>085-087-088-280800-
...PIKES PEAK/PALMER DIVIDE AND SOUTHERN FOOTHILLS...

CITY           SKY/WX    TMP DP  RH WIND       PRES   REMARKS
COLO. SPRINGS  PTCLDY    48  14  25 N6        30.15F
A. F. ACADEMY  PTCLDY    55   8  15 W21G26    30.14F
ELLICOTT       NOT AVBL
FALCON         NOT AVBL
FORT CARSON    PTCLDY    51  15  24 SW10      30.12F
LIMON          CLEAR     25  18  74 N5        30.10F WCI  19
MONUMENT HILL  PTCLDY    36  16  44 S8        30.15F
TRINIDAD       CLEAR     37  23  56 W13       30.18F
$$

COZ042>045-048>051-090-091-280800-
...NORTHEAST COLORADO...

CITY           SKY/WX    TMP DP  RH WIND       PRES   REMARKS
GREELEY ARPT   CLEAR     30  19  64 NE5       30.02F WCI  25
AKRON          CLEAR     44  24  45 SW12      30.03F
BURLINGTON     CLEAR     36  22  56 SW9       30.04F
WRAY           CLEAR     34  27  76 W9        30.02S WCI  27
STERLING       CLEAR     34  30  86 S5        30.00F WCI  30
HOLYOKE        CLEAR     36  30  80 W10       30.00F
FORT MORGAN    CLEAR     39  23  53 W7        30.03F
$$

COZ086-089-092>099-280800-
...SOUTHEAST COLORADO...

CITY           SKY/WX    TMP DP  RH WIND       PRES   REMARKS
PUEBLO         PTCLDY    39  22  50 W12       30.10F
LA JUNTA       PTCLDY    39  23  52 VRB3      30.08S
LAMAR          PTCLDY    28  21  75 W8        30.05S WCI  20
SPRINGFIELD      N/A     45  19  35 W12       30.08F
$$


USA.gov is the U.S. government's official web portal to all federal, state and local government web resources and services.